User: anonymous   Login
Location: Unspecified
(0.0000°N, 0.0000°E)
Time: 21:49:37
(UTC+00:00)
Language:

OPTUS D1 - Orbit

View from above orbital plane
View from above orbital plane
View from above satellite
View from above satellite

Ground track
Ground track

The orbit data is extracted from the following two-line orbital elements,

1 29495U 06043B   14330.80964274 -.00000112  00000-0  10000-3 0  6517
2 29495 000.0284 006.5339 0003195 226.3757 284.2507 01.00272007 29829
Epoch (UTC): 26 November 2014 19:25:53
Eccentricity: 0.0003195
inclination: 0.0284°
perigee height: 35772 km
apogee height: 35799 km
right ascension of ascending node: 6.5339°
argument of perigee: 226.3757°
revolutions per day: 1.00272007
mean anomaly at epoch: 284.2507°
orbit number at epoch: 2982

The dashed part of the orbit path shows where the satellite is in the earth's shadow,  

DLR